This is the latest recevied weather packets stored in our database for station/object KC8YYF. If no packets are shown the sender has not sent any weather packets the latest 10 day(s).
| Time | Temp. | Humidity | Pressure | Rain* | Wind** | Luminosity | Snow |
|---|---|---|---|---|---|---|---|
| 1777998785 | 21.67° C | 58% | 1009.6 hPa | 0 mm | - | 536 W/m² | - |
| 1777998483 | 22.22° C | 55% | 1009.5 hPa | 0 mm | - | 560 W/m² | - |
| 1777998179 | 21.67° C | 59% | 1009.8 hPa | 0 mm | - | 495 W/m² | - |
| 1777997876 | 21.11° C | 58% | 1009.8 hPa | 0 mm | - | 510 W/m² | - |
| 1777997573 | 21.67° C | 60% | 1009.6 hPa | 0 mm | - | 416 W/m² | - |
| 1777997270 | 21.11° C | 62% | 1009.4 hPa | 0 mm | - | 385 W/m² | - |
| 1777996968 | 20.56° C | 58% | 1009.3 hPa | 0 mm | - | 396 W/m² | - |
| 1777996664 | 21.67° C | 61% | 1009.3 hPa | 0 mm | - | 451 W/m² | - |
| 1777996360 | 20.56° C | 65% | 1009.4 hPa | 0 mm | - | 461 W/m² | - |
| 1777996057 | 19.44° C | 68% | 1009.4 hPa | 0 mm | - | 125 W/m² | - |
| 1777995753 | 19.44° C | 65% | 1009.8 hPa | 0 mm | - | 78 W/m² | - |
| 1777995450 | 19.44° C | 65% | 1009.6 hPa | 0 mm | - | 104 W/m² | - |
| 1777995147 | 20° C | 66% | 1009.4 hPa | 0 mm | - | 133 W/m² | - |
| 1777994844 | 20° C | 63% | 1009.2 hPa | 0 mm | - | 137 W/m² | - |
| 1777994541 | 20° C | 65% | 1009.4 hPa | 0 mm | - | 157 W/m² | - |
| 1777994235 | 20° C | 62% | 1009.3 hPa | 0 mm | - | 137 W/m² | - |
| 1777993933 | 21.11° C | 61% | 1009.3 hPa | 0 mm | - | 393 W/m² | - |
| 1777993629 | 20.56° C | 63% | 1009.3 hPa | 0 mm | - | 526 W/m² | - |
| 1777993327 | 20.56° C | 64% | 1009.3 hPa | 0 mm | - | 409 W/m² | - |
| 1777993026 | 20° C | 67% | 1009.4 hPa | 0 mm | - | 462 W/m² | - |
| 1777992725 | 20° C | 64% | 1009.2 hPa | 0 mm | - | 433 W/m² | - |
| 1777992422 | 20° C | 67% | 1009.4 hPa | 0 mm | - | 385 W/m² | - |
| 1777992120 | 19.44° C | 67% | 1009.3 hPa | 0 mm | - | 343 W/m² | - |
| 1777991817 | 19.44° C | 67% | 1009.3 hPa | 0 mm | - | 395 W/m² | - |
| 1777991515 | 18.89° C | 70% | 1009.4 hPa | 0 mm | - | 380 W/m² | - |
* Rain latest hour (hover to see other rain measurements)
** Current wind speed in m/s (hover to see current wind gust speed)